Le nostre stazioni meteo in Italia

Pubblicità
Il mio iltempo24.it
Tyndrum, Gran Bretagna (99020): Temperatura & dewpoint: 22.03.2017 10:00:00 - 28.03.2017 10:00:00 (BST)Tyndrum, Gran Bretagna (99020): precipitazioni: 22.03.2017 10:00:00 - 28.03.2017 10:00:00 (BST)
Data & Tempo tt [°C] td [°C] rr [mm]
28.03.2017 10:00:00 5,4 2,5 0,0
28.03.2017 09:00:00 5,0 2,2 0,0
28.03.2017 08:00:00 4,8 2,0 0,0
28.03.2017 07:00:00 5,0 1,9 0,0
28.03.2017 06:00:00 5,1 2,5 0,0
28.03.2017 05:00:00 5,4 2,1 0,0
28.03.2017 04:00:00 5,3 3,0 0,0
28.03.2017 03:00:00 4,5 2,4 0,0
28.03.2017 02:00:00 4,7 1,9 0,0
28.03.2017 01:00:00 3,2 1,2 0,0
28.03.2017 00:00:00 3,5 0,9 0,0
27.03.2017 23:00:00 5,4 2,1 0,0
27.03.2017 22:00:00 6,2 2,8 0,0
27.03.2017 21:00:00 7,2 2,5 0,0
27.03.2017 20:00:00 11,1 2,6 0,0
27.03.2017 19:00:00 13,6 3,1 0,0
27.03.2017 18:00:00 15,4 3,7 0,0
27.03.2017 17:00:00 16,4 4,8 0,0
27.03.2017 16:00:00 16,5 4,8 0,0
27.03.2017 15:00:00 16,4 6,8 0,0
27.03.2017 14:00:00 16,1 5,9 0,0
27.03.2017 13:00:00 15,4 6,2 0,0
27.03.2017 12:00:00 13,1 6,3 0,0
27.03.2017 11:00:00 9,9 5,9 0,0
27.03.2017 10:00:00 5,9 4,5 0,0
27.03.2017 09:00:00 1,9 1,8 0,0
27.03.2017 08:00:00 -0,8 -1,1 0,0
27.03.2017 07:00:00 -1,0 -1,4 0,0
27.03.2017 06:00:00 -0,3 -0,8 0,0
27.03.2017 05:00:00 0,4 0,0 0,0
27.03.2017 04:00:00 0,8 0,1 0,0
27.03.2017 03:00:00 1,6 0,6 0,0
27.03.2017 02:00:00 2,8 1,0 0,0
27.03.2017 01:00:00 7,1 4,2 0,0
27.03.2017 00:00:00 5,2 3,4 0,0
26.03.2017 23:00:00 5,2 3,4 0,0
26.03.2017 22:00:00 8,0 3,8 0,0
26.03.2017 21:00:00 11,3 4,6 0,0
26.03.2017 20:00:00 12,3 4,9 0,0
26.03.2017 19:00:00 14,5 5,9 0,0
26.03.2017 18:00:00 16,3 5,8 0,0
26.03.2017 17:00:00 17,2 6,8 0,0
26.03.2017 16:00:00 17,8 7,4 0,0
26.03.2017 15:00:00 17,2 6,8 0,0
26.03.2017 14:00:00 16,5 5,3 0,0
26.03.2017 13:00:00 16,0 4,4 0,0
26.03.2017 12:00:00 11,7 4,9 0,0
26.03.2017 11:00:00 6,7 2,9 0,0
26.03.2017 10:00:00 2,9 2,3 0,0
26.03.2017 09:00:00 -1,3 -1,5 0,0
26.03.2017 08:00:00 -3,2 -3,7 0,0
26.03.2017 07:00:00 -3,3 -3,8 0,0
26.03.2017 06:00:00 -3,1 -3,6 0,0
26.03.2017 05:00:00 -2,7 -3,2 0,0
26.03.2017 04:00:00 -2,5 -3,1 0,0
26.03.2017 03:00:00 -2,0 -2,7 0,0
26.03.2017 02:00:00 -1,9 -2,8 0,0
26.03.2017 01:00:00 -0,9 -1,8 0,0
26.03.2017 00:00:00 0,1 -1,0 0,0
25.03.2017 23:00:00 1,2 -0,3 0,0
25.03.2017 22:00:00 2,8 0,8 0,0
25.03.2017 21:00:00 4,1 0,6 0,0
25.03.2017 20:00:00 6,8 0,8 0,0
25.03.2017 19:00:00 11,7 0,3 0,0
25.03.2017 18:00:00 14,4 0,2 0,0
25.03.2017 17:00:00 14,7 0,3 0,0
25.03.2017 16:00:00 14,7 0,4 0,0
25.03.2017 15:00:00 15,3 -1,1 0,0
25.03.2017 14:00:00 14,8 -2,6 0,0
25.03.2017 13:00:00 14,2 -1,4 0,0
25.03.2017 12:00:00 13,1 1,2 0,0
25.03.2017 11:00:00 8,2 0,5 0,0
25.03.2017 10:00:00 5,1 1,4 0,2
25.03.2017 09:00:00 1,3 1,0 0,0
25.03.2017 08:00:00 -2,5 -3,1 0,0
25.03.2017 07:00:00 -2,7 -3,3 0,0
25.03.2017 06:00:00 -2,7 -3,2 0,0
25.03.2017 05:00:00 -2,2 -2,7 0,0
25.03.2017 04:00:00 -2,1 -2,8 0,0
25.03.2017 03:00:00 -1,8 -2,5 0,0
25.03.2017 02:00:00 -1,1 -1,8 0,0
25.03.2017 01:00:00 -0,3 -1,1 0,0
25.03.2017 00:00:00 0,9 0,0 0,0
24.03.2017 23:00:00 1,0 -0,4 0,0
24.03.2017 22:00:00 2,1 0,0 0,0
24.03.2017 21:00:00 3,7 1,2 0,0
24.03.2017 20:00:00 5,8 0,7 0,0
24.03.2017 19:00:00 8,1 1,9 0,0
24.03.2017 18:00:00 9,8 0,0 0,0
24.03.2017 17:00:00 10,9 1,2 0,0
24.03.2017 16:00:00 11,3 2,3 0,0
24.03.2017 15:00:00 11,0 2,2 0,0
24.03.2017 14:00:00 9,6 1,4 0,0
24.03.2017 13:00:00 9,2 3,0 0,0
24.03.2017 12:00:00 7,0 1,6 0,0
24.03.2017 11:00:00 3,3 1,0 0,0
24.03.2017 10:00:00 0,3 0,1 0,0
24.03.2017 09:00:00 -0,9 -1,1 0,0
24.03.2017 08:00:00 -3,5 -4,0 0,0
24.03.2017 07:00:00 -3,6 -4,2 0,0
24.03.2017 06:00:00 -3,9 -4,7 0,0
24.03.2017 05:00:00 -3,3 -3,8 0,0
24.03.2017 04:00:00 -3,2 -3,8 0,0
24.03.2017 03:00:00 -2,3 -2,8 0,0
24.03.2017 02:00:00 -2,1 -2,7 0,0
24.03.2017 01:00:00 -1,8 -2,6 0,0
24.03.2017 00:00:00 -0,9 -1,7 0,0
23.03.2017 23:00:00 0,2 -1,2 0,0
23.03.2017 22:00:00 2,4 0,5 0,0
23.03.2017 21:00:00 4,2 1,1 0,0
23.03.2017 20:00:00 4,9 1,1 0,0
23.03.2017 19:00:00 5,6 1,3 0,0
23.03.2017 18:00:00 6,0 1,7 0,0
23.03.2017 17:00:00 6,3 2,0 0,0
23.03.2017 16:00:00 6,1 1,6 0,0
23.03.2017 15:00:00 6,5 1,2 0,0
23.03.2017 14:00:00 6,6 0,9 0,0
23.03.2017 13:00:00 5,6 0,4 0,0
23.03.2017 12:00:00 5,2 -1,0 0,0
23.03.2017 11:00:00 5,2 -0,9 0,0
23.03.2017 10:00:00 3,9 -1,0 0,0
23.03.2017 09:00:00 2,1 -1,8 0,0
23.03.2017 08:00:00 1,1 -1,8 0,0
23.03.2017 07:00:00 0,0 -2,5 0,0
23.03.2017 06:00:00 1,6 -2,8 0,0
23.03.2017 05:00:00 2,5 -3,1 0,0
23.03.2017 04:00:00 1,2 -2,1 0,0
23.03.2017 03:00:00 1,7 -1,7 0,0
23.03.2017 02:00:00 2,0 -2,2 0,0
23.03.2017 01:00:00 2,7 -2,0 0,0
23.03.2017 00:00:00 2,0 -2,5 0,0
22.03.2017 23:00:00 2,9 -2,8 0,0
22.03.2017 22:00:00 3,4 -1,6 0,0
22.03.2017 21:00:00 4,3 -2,1 0,0
22.03.2017 20:00:00 4,3 -1,7 0,0
22.03.2017 19:00:00 5,0 -2,2 0,0
22.03.2017 18:00:00 5,5 -1,2 0,0
22.03.2017 17:00:00 5,7 -0,5 0,0
22.03.2017 16:00:00 5,6 -0,1 0,0
22.03.2017 15:00:00 6,3 0,1 0,0
22.03.2017 14:00:00 7,2 2,5 0,0
22.03.2017 13:00:00 4,3 -0,2 0,0
22.03.2017 12:00:00 4,1 -0,2 0,0
22.03.2017 11:00:00 1,7 -0,9 0,0
22.03.2017 10:00:00 - - -

tt = Temperatura
td = dewpoint
rr = precipitazioni

Stazioni seguenti

WeatherPro
AMSI
MeteoEarth